Potgietersrus, South Africa

9:29 AM SAST on February 06, 2016 (GMT +0200)
Potgietersrus

Weather History for FAPP - March, 2013

Change the Weather History Date:

Monday, March 18, 2013

  Actual Average Record
Temperature  
Mean Temperature 68 °F -  
Max Temperature 78 °F - - ()
Min Temperature 57 °F - - ()
Cooling Degree Days 2    
Growing Degree Days 18 (Base 50)    
Moisture  
Dew Point 54 °F    
Average Humidity 69    
Maximum Humidity 94    
Minimum Humidity 44    
Precipitation  
Precipitation 0.00 in - - ()
Sea Level Pressure  
Sea Level Pressure 30.03 in    
Wind  
Wind Speed 6 mph ()    
Max Wind Speed 10 mph    
Max Gust Speed -    
Visibility 5.4 miles    
Events      
T = Trace of Precipitation, MM = Missing Value Source: Averaged Metar Reports

Daily Weather History Graph

Daily Weather History Graph

Search for Another Location

Airport or City:

Trip Planner

Search our weather history database for the weather conditions in past years. The results will help you decide how hot, cold, wet, or windy it might be!

Date:

Astronomy

Mar. 18, 2013 Rise Set
Actual Time 6:05 AM SAST 6:14 PM SAST
Civil Twilight 5:42 AM SAST 6:37 PM SAST
Nautical Twilight 5:16 AM SAST 7:03 PM SAST
Astronomical Twilight 4:49 AM SAST 7:30 PM SAST
Moon 11:45 AM SAST (3/18) 10:51 PM SAST (3/18)
Length of Visible Light 12h 55m
Length of Day
12h 09m
Waxing Crescent, 38% of the Moon is Illuminated
Mar 18
Waxing Crescent
Mar 19
First Quarter
Mar 27
Full
Apr 3
Last Quarter
Apr 10
New

Hourly Weather History & Observations

Time (SAST) Temp. Dew Point Humidity Pressure Visibility Wind Dir Wind Speed Gust Speed Precip Events Conditions
12:00 AM 64.4 °F 53.6 °F 68% 30.06 in - ENE 8.1 mph - N/A   Unknown
1:00 AM 60.8 °F 53.6 °F 77% 30.06 in - NE 4.6 mph - N/A   Unknown
2:00 AM 59.0 °F 53.6 °F 82% 30.04 in - NNE 4.6 mph - N/A   Unknown
3:00 AM 57.2 °F 53.6 °F 88% 30.04 in - NE 4.6 mph - N/A   Unknown
4:00 AM 57.2 °F 55.4 °F 94% 30.04 in - NNE 4.6 mph - N/A   Unknown
5:00 AM 59.0 °F 55.4 °F 88% 30.04 in 5.0 mi NE 8.1 mph - N/A   Mostly Cloudy
6:00 AM 57.2 °F 53.6 °F 88% 30.04 in 3.1 mi NE 8.1 mph - N/A   Overcast
7:00 AM 59.0 °F 53.6 °F 82% 30.06 in 3.1 mi NE 9.2 mph - N/A   Overcast
8:00 AM 59.0 °F 53.6 °F 82% 30.06 in 3.1 mi NE 10.4 mph - N/A   Overcast
9:00 AM 62.6 °F 53.6 °F 72% 30.09 in 3.1 mi NE 9.2 mph - N/A   Haze
10:00 AM 64.4 °F 53.6 °F 68% 30.09 in 6.2 mi NE 9.2 mph - N/A   Mostly Cloudy
11:00 AM 66.2 °F 53.6 °F 64% 30.06 in 6.2 mi NE 9.2 mph - N/A   Mostly Cloudy
11:38 AM 69.8 °F 53.6 °F 56% 30.06 in 6.2 mi NNE 10.4 mph - N/A   Mostly Cloudy
12:00 PM 69.8 °F 53.6 °F 56% 30.04 in 6.2 mi NE 9.2 mph - N/A   Mostly Cloudy
1:00 PM 71.6 °F 53.6 °F 53% 30.01 in 6.2 mi NNE 6.9 mph - N/A   Scattered Clouds
2:00 PM 75.2 °F 53.6 °F 47% 30.01 in 6.2 mi NNW 6.9 mph - N/A   Partly Cloudy
3:00 PM 77.0 °F 55.4 °F 47% 29.98 in 6.2 mi NNE 8.1 mph - N/A   Partly Cloudy
4:00 PM 78.8 °F 55.4 °F 44% 29.98 in 6.2 mi NE 2.3 mph - N/A   Partly Cloudy
5:00 PM 78.8 °F 55.4 °F 44% 29.95 in 6.2 mi NNW 6.9 mph - N/A   Partly Cloudy
6:00 PM 77.0 °F 57.2 °F 50% 29.95 in 6.2 mi NNW 6.9 mph - N/A   Partly Cloudy
7:00 PM 69.8 °F 57.2 °F 64% 29.98 in 6.2 mi NE 6.9 mph - N/A   Partly Cloudy
8:00 PM 64.4 °F 55.4 °F 73% 29.98 in 6.2 mi NE 5.8 mph - N/A   Partly Cloudy
9:00 PM 60.8 °F 55.4 °F 82% 30.01 in - NNE 3.5 mph - N/A   Unknown
10:00 PM 60.8 °F 53.6 °F 77% 30.04 in - NNE 2.3 mph - N/A   Unknown
11:00 PM 59.0 °F 53.6 °F 82% 30.01 in - NNW 1.2 mph - N/A   Unknown